Simultaneous Nadir Overpasses (SNOs) Predictions

Prediction of SNOs between AQUA and GOES-15 Satellite Orbit:

Table of predicted SNOs for the next 14.0 days since TLE Epoch: 8/26/2017
Index Date Time (AQUA) AQUA Lat,Lon GOES-15 Lat,Lon Distance(km) Time Diff (sec)
1 08/26/2017 10:31:29 0.14,-134.03 0.35,-135.08 118.99 80
2 08/26/2017 22:52:52 -1.24,-139.22 -0.35,-135.06 472.67 80
3 08/28/2017 10:19:18 -0.48,-131.07 0.35,-135.08 454.96 80
4 08/28/2017 22:40:41 -0.61,-136.26 -0.35,-135.06 136.64 80
5 08/30/2017 22:28:31 0.01,-133.31 -0.35,-135.06 198.70 80
6 08/31/2017 10:49:46 1.09,-138.47 0.34,-135.08 385.60 80
7 09/02/2017 10:37:35 0.46,-135.51 0.34,-135.07 51.31 80
8 09/04/2017 10:25:24 -0.17,-132.56 0.34,-135.05 282.62 80
9 09/04/2017 22:46:48 -0.92,-137.75 -0.33,-135.01 311.52 80
10 09/06/2017 22:34:37 -0.29,-134.80 -0.33,-134.99 21.96 80
11 09/08/2017 22:22:26 0.35,-131.84 -0.33,-134.96 355.01 80




NCC Satellite Simultaneous Nadir Overpasses (SNOs) Prediction Service
